CPA431 RCKH-VHHX

Flight info

Callsign CPA431
Flight time 1h 8m
Altitude 38000
Route PARAS1B PARAS T7 WP521 G581 MAGOG
Aircraft A343/H-SDE2E3FGHIJ4J5M1RWXYZ/LB1D1

Departure

Time 2026-04-23 22:33
Airport Kaohsiung International Airport (RCKH)

Arrival

Time 2026-04-23 23:41
Airport Hong Kong International Airport Kai Tak (VHHX)
Time Latitude Longitude Altitude Speed Heading
2026-04-23 22:01 22.57267 120.34227 42 ft 0 kts 271°
2026-04-23 22:24 22.57266 120.34237 42 ft 4 kts 271°
2026-04-23 22:24 22.57266 120.34266 42 ft 4 kts 270°
2026-04-23 22:24 22.57267 120.34295 42 ft 4 kts 261°
2026-04-23 22:25 22.57274 120.34320 37 ft 4 kts 217°
2026-04-23 22:25 22.57294 120.34325 41 ft 4 kts 180°
2026-04-23 22:25 22.57321 120.34325 40 ft 4 kts 180°
2026-04-23 22:25 22.57349 120.34326 41 ft 4 kts 180°
2026-04-23 22:26 22.57376 120.34326 41 ft 4 kts 180°
2026-04-23 22:26 22.57397 120.34329 40 ft 4 kts 231°
2026-04-23 22:26 22.57401 120.34352 37 ft 4 kts 274°
2026-04-23 22:26 22.57400 120.34380 37 ft 4 kts 271°
2026-04-23 22:27 22.57400 120.34401 38 ft 0 kts 272°
2026-04-23 22:28 22.57400 120.34400 38 ft 1 kts 272°
2026-04-23 22:29 22.57400 120.34380 37 ft 4 kts 272°
2026-04-23 22:29 22.57401 120.34338 40 ft 7 kts 272°
2026-04-23 22:29 22.57403 120.34277 42 ft 9 kts 272°
2026-04-23 22:29 22.57406 120.34200 42 ft 11 kts 272°
2026-04-23 22:30 22.57408 120.34112 42 ft 12 kts 271°
2026-04-23 22:30 22.57411 120.34015 42 ft 14 kts 272°
2026-04-23 22:30 22.57414 120.33904 42 ft 15 kts 271°
2026-04-23 22:30 22.57417 120.33785 42 ft 16 kts 272°
2026-04-23 22:31 22.57428 120.33697 42 ft 11 kts 293°
2026-04-23 22:31 22.57481 120.33633 42 ft 12 kts 316°
2026-04-23 22:31 22.57546 120.33568 42 ft 13 kts 317°
2026-04-23 22:31 22.57600 120.33517 41 ft 9 kts 323°
2026-04-23 22:32 22.57663 120.33503 42 ft 10 kts
2026-04-23 22:32 22.57738 120.33507 42 ft 9 kts 21°
2026-04-23 22:32 22.57753 120.33567 42 ft 12 kts 91°
2026-04-23 22:32 22.57744 120.33801 43 ft 59 kts 92°
2026-04-23 22:33 22.57724 120.34487 43 ft 121 kts 92°
2026-04-23 22:33 22.57695 120.35570 142 ft 158 kts 92°
2026-04-23 22:33 22.57652 120.36779 709 ft 163 kts 92°
2026-04-23 22:33 22.57461 120.37989 1241 ft 168 kts 120°
2026-04-23 22:34 22.56457 120.38578 1784 ft 177 kts 183°
2026-04-23 22:34 22.55400 120.37954 2384 ft 180 kts 234°
2026-04-23 22:34 22.54690 120.36788 2910 ft 191 kts 231°
2026-04-23 22:34 22.53744 120.35772 3661 ft 194 kts 226°
2026-04-23 22:35 22.52729 120.34750 4258 ft 205 kts 222°
2026-04-23 22:35 22.51603 120.33756 4945 ft 212 kts 221°
2026-04-23 22:35 22.50423 120.32734 5711 ft 221 kts 221°
2026-04-23 22:35 22.49199 120.31672 6464 ft 233 kts 222°
2026-04-23 22:36 22.47881 120.30524 6944 ft 256 kts 222°
2026-04-23 22:36 22.46524 120.29202 7225 ft 268 kts 231°
2026-04-23 22:36 22.45481 120.27539 8142 ft 266 kts 242°
2026-04-23 22:36 22.44602 120.25794 9217 ft 263 kts 244°
2026-04-23 22:37 22.43760 120.24033 10167 ft 266 kts 244°
2026-04-23 22:37 22.42902 120.22194 10649 ft 284 kts 245°
2026-04-23 22:37 22.42004 120.20244 10992 ft 303 kts 245°
2026-04-23 22:37 22.41041 120.18143 11402 ft 319 kts 245°
2026-04-23 22:38 22.40044 120.15967 11987 ft 327 kts 245°
2026-04-23 22:38 22.39025 120.13740 12667 ft 333 kts 245°
2026-04-23 22:38 22.37992 120.11482 13372 ft 338 kts 245°
2026-04-23 22:38 22.36930 120.09161 14052 ft 342 kts 245°
2026-04-23 22:39 22.35884 120.06876 14681 ft 346 kts 245°
2026-04-23 22:39 22.34812 120.04533 15361 ft 349 kts 245°
2026-04-23 22:39 22.33730 120.02170 16030 ft 353 kts 245°
2026-04-23 22:39 22.32636 119.99782 16713 ft 357 kts 245°
2026-04-23 22:40 22.31534 119.97377 17397 ft 360 kts 245°
2026-04-23 22:40 22.30416 119.94937 18070 ft 364 kts 245°
2026-04-23 22:40 22.28151 119.90001 19269 ft 369 kts 245°
2026-04-23 22:41 22.27007 119.87509 19884 ft 371 kts 244°
2026-04-23 22:41 22.25858 119.85008 20488 ft 373 kts 244°
2026-04-23 22:41 22.24703 119.82493 21078 ft 375 kts 244°
2026-04-23 22:41 22.23539 119.79963 21661 ft 377 kts 245°
2026-04-23 22:42 22.22371 119.77423 22238 ft 380 kts 245°
2026-04-23 22:42 22.21240 119.74837 22780 ft 382 kts 249°
2026-04-23 22:42 22.20394 119.72115 23328 ft 384 kts 254°
2026-04-23 22:42 22.19708 119.69319 23790 ft 387 kts 256°
2026-04-23 22:43 22.19096 119.66479 24214 ft 390 kts 257°
2026-04-23 22:43 22.18510 119.63612 24638 ft 393 kts 257°
2026-04-23 22:43 22.17923 119.60723 25048 ft 396 kts 257°
2026-04-23 22:43 22.17323 119.57817 25477 ft 398 kts 257°
2026-04-23 22:44 22.16708 119.54890 25901 ft 401 kts 257°
2026-04-23 22:44 22.16264 119.51915 26296 ft 405 kts 263°
2026-04-23 22:44 22.16062 119.48867 26674 ft 408 kts 265°
2026-04-23 22:44 22.15931 119.45797 27064 ft 411 kts 266°
2026-04-23 22:45 22.15839 119.42703 27446 ft 414 kts 267°
2026-04-23 22:45 22.15764 119.39589 27832 ft 417 kts 267°
2026-04-23 22:45 22.15693 119.36491 28179 ft 420 kts 267°
2026-04-23 22:45 22.15619 119.33337 28539 ft 422 kts 267°
2026-04-23 22:46 22.15540 119.30158 28904 ft 425 kts 266°
2026-04-23 22:46 22.15456 119.26960 29241 ft 428 kts 266°
2026-04-23 22:46 22.15368 119.23748 29622 ft 429 kts 266°
2026-04-23 22:46 22.15278 119.20520 29957 ft 432 kts 266°
2026-04-23 22:47 22.15185 119.17276 30239 ft 434 kts 266°
2026-04-23 22:47 22.15092 119.14016 30535 ft 436 kts 266°
2026-04-23 22:47 22.15011 119.10745 30848 ft 437 kts 268°
2026-04-23 22:47 22.15183 119.07465 31147 ft 440 kts 273°
2026-04-23 22:48 22.15514 119.04177 31444 ft 442 kts 274°
2026-04-23 22:48 22.15889 119.00878 31759 ft 442 kts 275°
2026-04-23 22:48 22.16287 118.97594 32197 ft 440 kts 275°
2026-04-23 22:48 22.16694 118.94334 32623 ft 438 kts 275°
2026-04-23 22:49 22.17095 118.91081 32988 ft 437 kts 275°
2026-04-23 22:49 22.17490 118.87830 33363 ft 436 kts 275°
2026-04-23 22:49 22.17878 118.84595 33743 ft 434 kts 275°
2026-04-23 22:49 22.18262 118.81376 34095 ft 433 kts 275°
2026-04-23 22:50 22.18644 118.78155 34405 ft 432 kts 275°
2026-04-23 22:50 22.19023 118.74948 34706 ft 431 kts 275°
2026-04-23 22:50 22.19402 118.71746 35008 ft 429 kts 275°
2026-04-23 22:51 22.19529 118.70668 35107 ft 429 kts 275°
2026-04-23 22:51 22.19665 118.69515 35214 ft 429 kts 275°
2026-04-23 22:51 22.20041 118.66329 35520 ft 427 kts 275°
2026-04-23 22:51 22.20415 118.63152 35795 ft 427 kts 275°
2026-04-23 22:52 22.20789 118.59977 36075 ft 426 kts 275°
2026-04-23 22:52 22.21160 118.56815 36379 ft 425 kts 275°
2026-04-23 22:52 22.21531 118.53656 36656 ft 424 kts 275°
2026-04-23 22:52 22.21902 118.50510 36940 ft 422 kts 275°
2026-04-23 22:53 22.22271 118.47365 37224 ft 421 kts 275°
2026-04-23 22:53 22.22637 118.44233 37502 ft 420 kts 275°
2026-04-23 22:53 22.23000 118.41111 37778 ft 419 kts 275°
2026-04-23 22:53 22.23362 118.37987 37934 ft 421 kts 275°
2026-04-23 22:54 22.23726 118.34847 37947 ft 420 kts 275°
2026-04-23 22:54 22.24447 118.28631 37945 ft 416 kts 275°
2026-04-23 22:55 22.25161 118.22445 37950 ft 415 kts 275°
2026-04-23 22:55 22.25873 118.16257 37943 ft 415 kts 275°
2026-04-23 22:56 22.26578 118.10113 37949 ft 415 kts 275°
2026-04-23 22:56 22.27257 118.03920 37942 ft 415 kts 275°
2026-04-23 22:57 22.27933 117.97722 37944 ft 416 kts 275°
2026-04-23 22:57 22.28638 117.91527 37942 ft 416 kts 275°
2026-04-23 22:58 22.29348 117.85336 37949 ft 416 kts 275°
2026-04-23 22:58 22.30056 117.79140 37946 ft 416 kts 275°
2026-04-23 22:59 22.30759 117.72941 37949 ft 416 kts 275°
2026-04-23 22:59 22.31458 117.66746 37950 ft 416 kts 275°
2026-04-23 23:00 22.32156 117.60549 37952 ft 416 kts 275°
2026-04-23 23:00 22.32851 117.54352 37954 ft 416 kts 275°
2026-04-23 23:01 22.33255 117.48142 37950 ft 414 kts 269°
2026-04-23 23:01 22.33185 117.41941 37952 ft 411 kts 268°
2026-04-23 23:02 22.33083 117.35791 37946 ft 409 kts 268°
2026-04-23 23:02 22.32974 117.29680 37952 ft 409 kts 268°
2026-04-23 23:03 22.32861 117.23539 37950 ft 409 kts 268°
2026-04-23 23:03 22.32745 117.17395 37949 ft 409 kts 268°
2026-04-23 23:04 22.32627 117.11267 37950 ft 407 kts 268°
2026-04-23 23:04 22.32507 117.05166 37953 ft 406 kts 267°
2026-04-23 23:05 22.32385 116.99071 37953 ft 406 kts 267°
2026-04-23 23:05 22.32260 116.92974 37953 ft 406 kts 267°
2026-04-23 23:06 22.32134 116.86886 37962 ft 406 kts 267°
2026-04-23 23:06 22.32005 116.80802 37927 ft 404 kts 268°
2026-04-23 23:07 22.31874 116.74718 37953 ft 406 kts 268°
2026-04-23 23:07 22.31741 116.68614 37959 ft 407 kts 268°
2026-04-23 23:08 22.31628 116.63534 37951 ft 407 kts 268°
2026-04-23 23:08 22.31490 116.57427 37955 ft 407 kts 268°
2026-04-23 23:09 22.31350 116.51327 37956 ft 405 kts 268°
2026-04-23 23:09 22.31209 116.45271 37958 ft 403 kts 268°
2026-04-23 23:10 22.31066 116.39218 37958 ft 403 kts 268°
2026-04-23 23:10 22.30920 116.33165 37957 ft 403 kts 268°
2026-04-23 23:11 22.30772 116.27107 37956 ft 403 kts 268°
2026-04-23 23:11 22.30622 116.21058 37956 ft 402 kts 267°
2026-04-23 23:12 22.30470 116.15040 37955 ft 401 kts 267°
2026-04-23 23:12 22.30317 116.09058 37958 ft 401 kts 267°
2026-04-23 23:13 22.30161 116.03046 37957 ft 401 kts 267°
2026-04-23 23:13 22.30003 115.97026 37957 ft 401 kts 267°
2026-04-23 23:14 22.29843 115.91020 37952 ft 399 kts 267°
2026-04-23 23:14 22.29763 115.88025 37759 ft 398 kts 267°
2026-04-23 23:14 22.29682 115.85041 37501 ft 398 kts 267°
2026-04-23 23:14 22.29600 115.82054 37239 ft 399 kts 267°
2026-04-23 23:15 22.29504 115.79053 36998 ft 400 kts 266°
2026-04-23 23:15 22.29390 115.76050 36591 ft 400 kts 266°
2026-04-23 23:15 22.29274 115.73047 35975 ft 401 kts 266°
2026-04-23 23:15 22.29160 115.70028 35293 ft 405 kts 266°
2026-04-23 23:16 22.29044 115.66969 34566 ft 410 kts 266°
2026-04-23 23:16 22.28927 115.63867 33776 ft 416 kts 267°
2026-04-23 23:16 22.28809 115.60728 32911 ft 421 kts 266°
2026-04-23 23:16 22.28690 115.57558 32077 ft 425 kts 266°
2026-04-23 23:17 22.28568 115.54356 31343 ft 427 kts 266°
2026-04-23 23:17 22.28447 115.51166 30784 ft 425 kts 266°
2026-04-23 23:17 22.28326 115.47985 30202 ft 423 kts 266°
2026-04-23 23:17 22.28204 115.44814 29545 ft 422 kts 266°
2026-04-23 23:18 22.28082 115.41664 28947 ft 419 kts 266°
2026-04-23 23:18 22.27961 115.38532 28357 ft 416 kts 266°
2026-04-23 23:18 22.27839 115.35416 27773 ft 414 kts 266°
2026-04-23 23:18 22.27718 115.32323 27191 ft 411 kts 266°
2026-04-23 23:19 22.27597 115.29255 26603 ft 409 kts 266°
2026-04-23 23:19 22.27476 115.26189 26004 ft 407 kts 266°
2026-04-23 23:19 22.27355 115.23140 25400 ft 405 kts 266°
2026-04-23 23:19 22.27233 115.20107 24815 ft 404 kts 266°
2026-04-23 23:20 22.27114 115.17125 24226 ft 403 kts 266°
2026-04-23 23:20 22.26911 115.14117 23627 ft 401 kts 262°
2026-04-23 23:20 22.26449 115.11161 22971 ft 399 kts 259°
2026-04-23 23:20 22.25921 115.08224 22359 ft 396 kts 259°
2026-04-23 23:21 22.25393 115.05319 21769 ft 393 kts 259°
2026-04-23 23:21 22.24871 115.02434 21182 ft 390 kts 259°
2026-04-23 23:21 22.24353 114.99569 20602 ft 388 kts 259°
2026-04-23 23:21 22.23838 114.96719 20022 ft 386 kts 259°
2026-04-23 23:22 22.23342 114.93875 19434 ft 384 kts 261°
2026-04-23 23:22 22.23129 114.91008 18866 ft 383 kts 268°
2026-04-23 23:22 22.23084 114.88139 18296 ft 382 kts 269°
2026-04-23 23:22 22.23061 114.85276 17657 ft 380 kts 269°
2026-04-23 23:23 22.23036 114.82433 17051 ft 377 kts 269°
2026-04-23 23:23 22.23009 114.79614 16480 ft 375 kts 269°
2026-04-23 23:23 22.22979 114.76804 15896 ft 373 kts 269°
2026-04-23 23:23 22.22947 114.74016 15511 ft 367 kts 269°
2026-04-23 23:24 22.22916 114.71321 15393 ft 352 kts 269°
2026-04-23 23:24 22.22885 114.68723 15274 ft 339 kts 269°
2026-04-23 23:24 22.22855 114.66220 15152 ft 328 kts 269°
2026-04-23 23:24 22.22825 114.63800 15029 ft 318 kts 269°
2026-04-23 23:25 22.22796 114.61448 14887 ft 309 kts 269°
2026-04-23 23:25 22.22767 114.59164 14745 ft 301 kts 269°
2026-04-23 23:25 22.22739 114.56959 14572 ft 295 kts 269°
2026-04-23 23:25 22.22708 114.54764 14330 ft 291 kts 269°
2026-04-23 23:26 22.22680 114.52591 14014 ft 287 kts 269°
2026-04-23 23:26 22.22652 114.50461 13364 ft 282 kts 269°
2026-04-23 23:26 22.22625 114.48345 13016 ft 285 kts 269°
2026-04-23 23:26 22.22596 114.46217 12827 ft 282 kts 268°
2026-04-23 23:27 22.22567 114.44100 12530 ft 282 kts 268°
2026-04-23 23:27 22.22538 114.41998 12283 ft 280 kts 269°
2026-04-23 23:27 22.22509 114.39897 12067 ft 280 kts 269°
2026-04-23 23:27 22.22480 114.37798 11825 ft 279 kts 269°
2026-04-23 23:28 22.22450 114.35700 11592 ft 279 kts 269°
2026-04-23 23:28 22.22421 114.33616 11359 ft 278 kts 269°
2026-04-23 23:28 22.22391 114.31530 11143 ft 278 kts 269°
2026-04-23 23:28 22.22361 114.29456 10903 ft 276 kts 269°
2026-04-23 23:29 22.22331 114.27387 10689 ft 275 kts 269°
2026-04-23 23:29 22.22301 114.25333 10463 ft 274 kts 268°
2026-04-23 23:29 22.22271 114.23292 10249 ft 272 kts 268°
2026-04-23 23:29 22.22240 114.21247 10025 ft 273 kts 268°
2026-04-23 23:30 22.22209 114.19201 9810 ft 272 kts 268°
2026-04-23 23:30 22.22178 114.17162 9550 ft 272 kts 268°
2026-04-23 23:30 22.22147 114.15140 9361 ft 266 kts 268°
2026-04-23 23:30 22.22117 114.13165 9168 ft 261 kts 268°
2026-04-23 23:31 22.22086 114.11216 8956 ft 261 kts 268°
2026-04-23 23:31 22.22056 114.09254 8749 ft 262 kts 268°
2026-04-23 23:31 22.22024 114.07296 8525 ft 260 kts 268°
2026-04-23 23:31 22.21993 114.05351 8308 ft 260 kts 268°
2026-04-23 23:32 22.21962 114.03402 8103 ft 260 kts 268°
2026-04-23 23:32 22.21926 114.01460 7844 ft 259 kts 267°
2026-04-23 23:32 22.21862 113.99545 7688 ft 251 kts 266°
2026-04-23 23:32 22.21795 113.97706 7509 ft 238 kts 267°
2026-04-23 23:33 22.21737 113.96048 7176 ft 229 kts 266°
2026-04-23 23:33 22.21680 113.94358 6820 ft 226 kts 267°
2026-04-23 23:33 22.21846 113.92689 6524 ft 217 kts 286°
2026-04-23 23:33 22.22626 113.91359 6309 ft 208 kts 313°
2026-04-23 23:34 22.23877 113.90620 6072 ft 209 kts 341°
2026-04-23 23:34 22.25302 113.90494 5782 ft 208 kts 357°
2026-04-23 23:34 22.26751 113.90554 5421 ft 208 kts 359°
2026-04-23 23:34 22.28136 113.90641 5082 ft 208 kts
2026-04-23 23:35 22.29489 113.91128 4690 ft 213 kts 32°
2026-04-23 23:35 22.30618 113.92147 4510 ft 211 kts 43°
2026-04-23 23:35 22.31548 113.93357 4490 ft 210 kts 63°
2026-04-23 23:35 22.32049 113.94823 4471 ft 209 kts 80°
2026-04-23 23:36 22.32189 113.96377 4318 ft 207 kts 90°
2026-04-23 23:36 22.32209 113.97918 4037 ft 204 kts 89°
2026-04-23 23:36 22.32298 113.99440 3746 ft 202 kts 87°
2026-04-23 23:36 22.32371 114.00944 3459 ft 200 kts 88°
2026-04-23 23:37 22.32443 114.02439 3191 ft 198 kts 88°
2026-04-23 23:37 22.32518 114.03916 2910 ft 195 kts 86°
2026-04-23 23:37 22.32589 114.05360 2648 ft 189 kts 86°
2026-04-23 23:37 22.32656 114.06727 2393 ft 176 kts 84°
2026-04-23 23:38 22.32719 114.08000 2162 ft 165 kts 86°
2026-04-23 23:38 22.32780 114.09222 1958 ft 162 kts 85°
2026-04-23 23:38 22.32841 114.10434 1742 ft 161 kts 85°
2026-04-23 23:38 22.32899 114.11608 1509 ft 155 kts 85°
2026-04-23 23:39 22.32955 114.12738 1315 ft 142 kts 82°
2026-04-23 23:39 22.33007 114.13765 1118 ft 133 kts 84°
2026-04-23 23:39 22.33054 114.14722 945 ft 131 kts 81°
2026-04-23 23:39 22.33105 114.15719 787 ft 136 kts 85°
2026-04-23 23:40 22.33155 114.16734 619 ft 137 kts 84°
2026-04-23 23:40 22.33204 114.17750 447 ft 133 kts 85°
2026-04-23 23:40 22.32989 114.18703 310 ft 139 kts 127°
2026-04-23 23:40 22.32330 114.19471 110 ft 140 kts 130°
2026-04-23 23:41 22.31686 114.20199 39 ft 117 kts 134°
2026-04-23 23:41 22.31244 114.20692 39 ft 65 kts 132°
2026-04-23 23:41 22.31023 114.20939 39 ft 31 kts 134°
2026-04-23 23:41 22.30895 114.21093 39 ft 27 kts 127°
2026-04-23 23:42 22.30824 114.21235 39 ft 15 kts 98°
2026-04-23 23:42 22.30873 114.21269 39 ft 8 kts 331°
2026-04-23 23:42 22.30913 114.21223 39 ft 10 kts 309°
2026-04-23 23:42 22.30969 114.21154 39 ft 14 kts 313°
2026-04-23 23:43 22.31045 114.21068 39 ft 17 kts 314°
2026-04-23 23:43 22.31142 114.20961 39 ft 22 kts 314°
2026-04-23 23:43 22.31258 114.20830 39 ft 25 kts 314°
2026-04-23 23:43 22.31381 114.20693 39 ft 26 kts 314°
2026-04-23 23:44 22.31474 114.20588 39 ft 16 kts 314°
2026-04-23 23:44 22.31558 114.20496 39 ft 18 kts 314°
2026-04-23 23:44 22.31648 114.20394 39 ft 19 kts 314°
2026-04-23 23:44 22.31747 114.20285 39 ft 21 kts 315°
2026-04-23 23:45 22.31851 114.20172 39 ft 21 kts 312°
2026-04-23 23:45 22.31950 114.20057 39 ft 20 kts 314°
2026-04-23 23:45 22.32055 114.19947 39 ft 21 kts 324°
2026-04-23 23:45 22.32188 114.19912 39 ft 20 kts 357°
2026-04-23 23:46 22.32327 114.19940 39 ft 21 kts 20°
2026-04-23 23:46 22.32454 114.19986 39 ft 16 kts 18°
2026-04-23 23:46 22.32540 114.20016 39 ft 12 kts 18°
2026-04-23 23:46 22.32618 114.20043 39 ft 12 kts 18°
2026-04-23 23:47 22.32646 114.20052 39 ft 0 kts 17°
2026-04-23 23:47 22.32672 114.20046 39 ft 6 kts 342°
2026-04-23 23:47 22.32722 114.20000 39 ft 12 kts 315°
2026-04-23 23:48 22.32778 114.19941 39 ft 11 kts 319°
2026-04-23 23:48 22.32837 114.19898 39 ft 10 kts 324°
2026-04-23 23:48 22.32885 114.19848 39 ft 10 kts 313°
2026-04-23 23:48 22.32928 114.19792 39 ft 9 kts 295°
2026-04-23 23:49 22.32845 114.19664 39 ft 12 kts 223°
2026-04-23 23:49 22.32790 114.19607 37 ft 10 kts 224°
2026-04-23 23:49 22.32752 114.19569 39 ft 4 kts 215°
2026-04-23 23:50 22.32723 114.19581 39 ft 5 kts 142°
2026-04-23 23:50 22.32696 114.19609 39 ft 4 kts 135°
2026-04-23 23:50 22.32680 114.19628 39 ft 3 kts 134°
2026-04-23 23:50 22.32670 114.19639 39 ft 2 kts 134°
2026-04-23 23:51 22.32662 114.19648 37 ft 0 kts 134°